Regional Weather Roundup
Issued by NWS Albany, NY

Home | Current Version | Previous Version | Text Only | Print | Product List | Glossary On
Versions: 1 2 3 4 5 6 7 8 9 10 11 12 13 14 15 16 17 18 19 20 21 22 23 24 25 26 27 28 29 30 31 32 33 34 35 36 37 38 39 40 41 42 43 44 45 46 47 48 49 50
000
ASUS41 KALY 030210
RWRALY

NEW YORK STATE HOURLY WEATHER ROUNDUP
NATIONAL WEATHER SERVICE ALBANY NY
900 PM EST MON MAR 02 2015

NOTE: "FAIR" INDICATES FEW OR NO CLOUDS BELOW 12,000 FEET WITH NO
SIGNIFICANT WEATHER AND/OR NO OBSTRUCTIONS TO VISIBILITY.

NYZ032-033-038>043-046>054-057>066-NYZ062>081-030300-
EAST


CITY           SKY/WX    TMP DP  RH WIND       PRES   REMARKS
ALBANY         PTCLDY    24   7  48 NW13G18   30.30R WCI  12
GLENS FALLS    MOCLDY    26   7  44 NW15      30.27R WCI  14
POUGHKEEPSIE   CLEAR     28   8  43 W10       30.28R WCI  19
NEWBURGH       CLEAR     25  12  58 NW14G21   30.29R WCI  13
MONTGOMERY     PTCLDY    25   8  48 NW12G17   30.28R WCI  14
WHITE PLAINS   CLEAR     27   7  42 NW14G21   30.25R WCI  16
ISLIP          PTCLDY    30   9  41 NW18G28   30.25R WCI  18
NEW YORK CITY  PTCLDY    32  11  41 NW22G28   30.29R WCI  19
CENTRAL PARK   CLEAR     32   8  36 VRB7G18   30.31R WCI  26
$$

NYZ005>009-017-018-044>046-055-056-030300-
CENTRAL


CITY           SKY/WX    TMP DP  RH WIND       PRES   REMARKS
FULTON         PTCLDY    21   9  59 W14       30.36R WCI   8
SYRACUSE       PTCLDY    18   9  68 W12       30.35S WCI   5
ROME           CLEAR     18   8  65 W12       30.35R WCI   5
ELMIRA         MOCLDY    22   9  57 NW9G22    30.37R WCI  12
BINGHAMTON     PTCLDY    19   8  62 NW10G22   30.27R WCI   7
MONTICELLO     CLEAR     19  10  68 NW18G30   30.24R WCI   4
$$

NYZ026>034-041>043-030300-
NORTH


CITY           SKY/WX    TMP DP  RH WIND       PRES   REMARKS
WATERTOWN      CLEAR     20   6  55 W15       30.34S WCI   6
FORT DRUM      NOT AVBL
MASSENA        CLEAR     18   2  49 W6        30.33R WCI  10
SARANAC LAKE   CLEAR     13   2  61 VRB3      30.17R
PLATTSBURGH    CLEAR     20   6  55 NW7       30.28R WCI  11
$$

NYZ001>004-010>016-019>021-030300-
WEST


CITY           SKY/WX    TMP DP  RH WIND       PRES   REMARKS
NIAGARA FALLS  MOCLDY    19   9  65 W9        30.42R WCI   8
BUFFALO        MOCLDY    19   8  62 W9        30.41R WCI   8
DUNKIRK        CLEAR     13  10  88 SW7       30.44S WCI   3
JAMESTOWN      CLEAR     16   9  73 W6        30.34F WCI   7
WELLSVILLE     MOCLDY    15   6  67 W9        30.31S WCI   3
ROCHESTER      PTCLDY    20   7  57 W8        30.40R WCI  10
PENN YAN       PTCLDY    21   8  57 W10G17    30.37R WCI  10
$$

             KEY
       WCI = WIND CHILL INDEX
       VSB = VISIBILITY
       HX  = HEAT INDEX
$$


USA.gov is the U.S. government's official web portal to all federal, state and local government web resources and services.